Regional Weather Roundup
Issued by NWS

Home | Current Version | Previous Version | Graphics & Text | Print | Product List | Glossary On
Versions: 1 2 3 4 5 6 7 8 9 10 11 12 13 14 15 16 17 18 19 20 21 22 23 24 25 26 27 28 29 30 31 32 33 34 35 36 37 38 39 40 41 42 43 44 45 46 47 48 49 50
000
ASUS43 KFSD 212302
RWRSD

WEATHER ROUNDUP FOR SOUTH DAKOTA
NATIONAL WEATHER SERVICE SIOUX FALLS SD
600 PM CDT TUE OCT 21 2014

NOTE: "FAIR" INDICATES FEW OR NO CLOUDS BELOW 12,000 FEET WITH NO
SIGNIFICANT WEATHER AND/OR OBSTRUCTIONS TO VISIBILITY.


SDZ001>005-009-010-012>017-220000-
NORTHWEST AND NORTH CENTRAL SOUTH DAKOTA

CITY           SKY/WX    TMP DP  RH WIND       PRES   REMARKS
FAITH            N/A     79  44  28 S17       29.68S
MOBRIDGE       CLEAR     79  44  28 S21       29.68F
$$

SDZ012>016-024>037-041>051-057-063-072>074-220000-
SOUTHWEST AND SOUTH CENTRAL SOUTH DAKOTA

CITY           SKY/WX    TMP DP  RH WIND       PRES   REMARKS
RAPID CTY ARPT CLEAR     77  45  32 S15       29.72F
PIERRE         CLEAR     79  43  27 S20G30    29.76R
CUSTER         MOCLDY    68  37  32 S13G21    29.87S
ELLSWORTH AFB  CLEAR     78  45  30 S10       29.72
PHILIP         CLEAR     80  48  32 S15       29.71F
PINE RIDGE     PTCLDY    76  47  35 S15       29.79F
SPEARFISH      FAIR      75  41  29 SW9       29.75S
WINNER         FAIR      77  32  19 S20       29.83S
$$

SDZ004>011-016>023-039-040-220000-
NORTHEAST SOUTH DAKOTA

CITY           SKY/WX    TMP DP  RH WIND       PRES   REMARKS
ABERDEEN       CLEAR     77  43  29 S18       29.82S
WATERTOWN      CLEAR     70  43  37 SE15G23   29.93R
SISSETON         N/A     67  42  40 S18G26    29.90R
$$

SDZ017-020-022-023-036>040-048>070-220000-
SOUTHEAST SOUTH DAKOTA

CITY           SKY/WX    TMP DP  RH WIND       PRES   REMARKS
SIOUX FALLS    CLEAR     70  44  39 SE13      29.97S
HURON          CLEAR     77  36  22 S13G29    29.86R
CHAMBERLAIN    CLEAR     75  36  23 S10G23    29.83S
MITCHELL       CLEAR     77  39  25 S18G26    29.89S
YANKTON        CLEAR     73  45  35 S15       29.94S
$$

ABBREVIATIONS USED IN REMARKS
   TC - TEMPERATURE IN CELSIUS
  WCI - WIND CHILL INDEX
   HX - HEAT INDEX
  VSB - VISIBILITY




USA.gov is the U.S. government's official web portal to all federal, state and local government web resources and services.